Wind_Speed
16 15 13 14 14 15 15 16 18 19 18 17 16 16 15 15 15 14 15 15 15 16 17 16 15 15 14 14 14 14 15 14 13 12 10 10 8 7 9 9 5 5 7 8 8 7 5 4 5 7 9 9 8 8 7 9 11 11 10 9 7 8 8 9 12 14 14 13 14 15 15 17 17 16 16 17 18 20 21 21 21 21 21 20 19
15 17 18 19 18 18 18 17 17 18 18 18 18 17 17 15 15 15 15 16 16 17 17 17 17 17 16 16 16 16 16 15 15 14 12 12 11 11 12 11 6 7 9 9 8 9 9 5 4 7 9 10 10 9 7 7 8 8 8 9 9 9 10 10 12 14 15 15 15 15 16 15 16 15 15 17 19 20 21 20 19 18 18 18 18
11 13 16 21 22 22 22 23 22 22 21 21 20 20 19 17 15 15 15 16 17 18 18 18 18 19 18 18 18 17 17 17 17 17 15 14 14 15 15 13 10 10 12 10 7 9 11 9 7 9 12 12 12 11 9 9 8 7 8 9 11 12 12 13 14 16 17 18 17 15 15 14 15 15 15 17 18 19 21 20 19 18 17 17 17
7 7 9 13 15 16 19 21 23 25 25 24 23 23 23 22 20 18 18 19 19 19 19 19 19 20 20 19 19 19 18 18 18 18 17 16 16 17 17 16 14 14 14 11 9 10 12 11 9 10 11 12 13 12 9 8 8 9 10 11 11 12 12 13 15 16 17 19 19 18 17 18 18 17 17 17 17 17 18 18 18 19 18 17 17
3 3 4 7 9 11 13 15 17 20 23 24 23 22 23 24 23 22 23 23 23 22 21 21 21 21 21 21 20 20 19 18 19 20 19 18 18 18 19 18 18 17 15 14 13 13 14 13 11 12 13 13 13 11 9 10 12 12 12 12 11 12 13 14 15 15 17 19 21 21 20 19 19 18 17 17 17 17 17 16 16 17 19 20 20
5 3 2 4 8 9 11 13 14 14 16 18 20 22 25 28 27 26 25 24 23 23 22 23 23 23 23 22 21 20 20 19 20 21 20 20 21 21 20 20 19 18 17 16 16 16 16 15 14 14 15 14 14 14 14 15 16 16 15 15 15 15 16 17 17 17 18 20 21 21 20 19 19 20 18 17 17 17 17 17 17 17 19 20 19
6 5 4 1 1 4 7 9 10 10 12 14 17 19 22 26 27 27 25 24 23 22 22 23 23 24 24 23 23 23 22 22 23 23 22 22 23 22 20 20 19 17 17 16 16 17 17 16 16 16 16 15 15 15 16 17 17 17 17 17 17 17 18 18 18 18 18 19 19 19 19 18 18 19 18 16 16 17 18 18 18 16 14 14 14
5 4 3 2 1 2 4 5 6 7 9 12 13 15 17 19 21 21 22 23 21 20 21 20 21 22 23 24 25 25 24 25 24 23 23 23 24 23 21 21 19 17 17 17 17 18 18 17 17 17 17 17 17 16 17 18 18 18 18 17 18 18 19 19 19 19 19 19 19 19 19 18 18 18 17 16 16 16 15 15 15 15 15 18 22
4 3 3 3 4 4 5 6 7 7 7 8 10 12 13 14 16 18 20 21 20 19 20 20 20 21 22 23 24 24 26 27 24 23 23 25 26 25 23 22 20 17 18 18 17 18 19 18 18 19 19 20 20 19 20 20 20 20 20 20 20 20 20 20 19 19 19 19 19 19 19 19 18 17 16 15 16 16 15 16 18 20 21 23 25
3 3 3 4 5 6 6 8 8 8 8 9 9 10 11 11 13 14 14 17 18 17 18 20 21 22 21 21 23 26 28 26 24 26 28 27 26 26 24 23 20 17 17 17 16 18 18 18 19 21 22 22 22 23 24 23 23 24 24 23 22 22 22 22 21 21 20 20 20 19 20 20 19 19 19 18 17 18 19 19 20 21 20 21 22
5 4 4 5 6 6 7 8 8 9 9 10 11 11 11 11 12 12 12 13 15 15 15 17 18 20 21 22 25 29 29 25 25 30 33 32 30 27 26 25 22 20 20 19 18 18 17 17 18 21 23 24 24 25 26 26 26 26 27 26 25 24 24 24 25 24 24 25 24 22 21 22 21 20 20 20 19 19 19 19 19 19 18 19 20
5 5 5 6 6 7 7 8 9 9 10 10 11 11 12 12 13 13 14 15 15 15 16 17 17 17 19 22 26 30 31 28 28 32 35 36 34 29 28 28 26 25 24 23 21 19 18 18 19 21 23 24 24 25 26 27 28 29 29 29 29 28 27 27 27 26 27 28 29 28 26 25 23 21 19 19 19 19 19 19 19 19 19 20 21
6 6 6 7 7 7 8 9 9 10 10 10 11 11 12 13 14 14 15 16 16 17 18 19 19 17 18 22 25 27 28 28 29 32 35 37 36 32 30 28 27 26 24 23 22 22 21 21 22 23 23 24 25 25 25 26 26 28 29 31 32 32 31 30 29 28 28 29 31 32 31 30 30 28 24 22 21 20 19 19 20 21 22 22 23
7 8 8 9 9 9 9 9 10 10 10 11 11 12 13 13 14 15 15 16 17 18 20 20 20 19 18 21 22 22 25 28 31 32 32 34 36 33 30 28 27 25 24 24 24 24 24 23 23 23 23 22 23 23 23 23 24 26 27 29 30 31 31 31 31 31 31 32 33 34 33 32 33 33 31 29 29 27 25 24 24 24 25 25 24
8 9 9 10 10 10 10 10 11 11 11 12 12 13 13 14 14 15 15 16 17 18 19 21 22 21 21 22 20 21 26 30 32 31 29 31 36 34 30 30 29 25 24 25 25 25 24 24 23 23 23 22 22 24 25 25 27 28 29 30 30 30 29 29 30 31 30 29 29 28 27 25 25 26 27 28 31 32 31 32 32 32 33 33 32
9 9 10 10 10 10 10 11 12 12 12 13 13 14 14 14 15 15 15 16 17 17 18 19 20 20 21 21 20 24 29 30 32 32 29 29 32 32 31 31 28 25 24 23 23 23 23 23 22 22 22 22 24 27 28 27 28 30 30 31 31 30 30 29 29 30 30 29 27 27 27 27 28 30 30 30 31 32 33 36 36 36 37 37 34
11 11 11 12 11 11 11 12 12 12 13 13 14 14 14 15 15 15 15 16 16 17 18 18 18 19 20 20 22 27 30 31 32 31 28 28 29 29 29 27 23 19 19 19 19 19 19 21 22 22 23 23 26 29 29 27 28 29 29 30 30 30 30 29 29 30 30 32 32 32 32 32 35 37 38 38 37 35 35 39 38 33 33 34 32
13 13 14 13 13 13 13 13 13 14 14 14 14 14 14 15 15 15 15 16 16 17 18 18 18 19 20 21 24 29 30 30 30 28 27 28 28 27 24 19 15 13 12 14 15 14 15 18 22 24 25 26 28 30 30 29 29 29 29 29 29 28 28 29 29 29 28 29 30 30 30 31 32 34 35 37 40 40 42 44 41 32 29 31 30
14 15 16 15 15 15 15 15 15 15 15 15 15 15 15 15 15 15 15 16 16 16 16 17 17 19 20 22 24 27 28 28 28 26 27 28 27 26 23 18 15 14 13 12 12 11 13 17 21 25 25 24 25 29 31 31 31 30 30 29 27 26 26 27 27 26 26 26 26 26 26 27 28 28 27 27 28 33 38 44 45 41 35 32 30
17 17 17 18 18 17 17 17 16 16 16 16 15 16 15 15 15 15 15 16 15 15 16 17 19 21 22 23 24 25 27 28 28 28 28 28 26 25 22 18 16 15 14 13 13 14 15 16 18 21 22 22 25 29 32 33 33 32 31 31 30 27 25 25 25 26 28 30 31 31 31 31 29 28 28 26 24 24 27 31 37 37 34 33 33
18 19 19 20 19 19 18 18 18 18 17 16 16 16 15 15 15 15 16 16 16 15 16 19 22 24 23 22 22 24 26 28 28 28 27 26 23 20 17 15 14 13 14 16 16 16 15 14 16 21 23 24 28 31 33 34 34 33 33 33 33 31 29 30 32 31 31 32 34 34 34 34 32 29 28 27 26 24 23 24 25 25 25 27 30
19 20 21 21 21 21 20 19 19 18 17 17 17 17 16 16 16 16 16 17 17 17 18 20 21 23 22 21 20 21 23 25 26 25 23 20 16 13 12 13 14 14 16 18 17 17 16 13 17 23 26 27 30 32 33 34 35 35 35 35 34 33 32 34 34 32 30 29 29 29 28 28 28 26 24 24 24 24 24 23 23 24 24 25 25
20 21 21 21 22 21 21 20 20 19 18 18 18 18 17 17 16 16 17 17 16 17 21 22 22 22 22 21 19 21 23 24 22 19 16 13 10 10 11 13 14 14 16 17 17 18 17 15 18 23 25 27 28 30 32 33 34 35 34 32 31 29 28 29 29 28 27 27 26 26 26 25 25 25 24 23 22 22 22 22 21 22 25 26 26
21 21 21 21 20 20 21 21 20 20 20 20 20 19 19 18 18 18 18 17 15 17 21 23 23 22 22 22 22 23 22 20 16 12 10 9 9 10 11 13 13 14 15 16 16 17 18 18 20 23 24 25 26 28 30 30 29 28 27 25 23 23 23 22 21 20 21 22 23 24 24 24 24 25 24 23 22 21 21 21 21 21 22 23 24
22 22 22 22 22 22 22 22 21 22 22 21 21 20 20 20 20 20 20 20 19 19 22 22 21 23 23 23 23 21 17 13 9 7 7 8 9 10 10 11 12 12 13 14 16 17 19 21 22 24 26 27 27 26 24 22 21 21 21 21 19 19 19 18 17 17 19 20 22 23 23 23 23 24 24 23 23 22 21 20 20 21 22 22 22
24 24 24 24 24 24 24 23 23 23 22 22 22 21 21 21 20 18 20 21 20 20 22 22 23 24 23 22 19 16 12 8 5 4 4 5 6 8 9 9 11 12 13 15 17 20 22 24 26 26 26 25 23 20 18 17 18 19 18 18 18 19 19 18 18 18 19 20 21 22 22 22 22 22 22 22 23 23 21 20 20 20 20 21 21
25 25 26 26 26 25 25 25 25 23 23 23 22 21 21 22 20 20 22 22 19 17 20 25 26 25 22 19 15 12 9 6 5 3 2 2 3 5 8 9 10 12 14 15 18 20 22 24 25 23 21 19 19 18 18 18 18 17 16 16 17 18 19 20 21 22 22 23 23 22 22 22 22 22 21 21 22 22 22 22 21 20 19 20 20
25 26 27 27 27 27 26 26 25 24 23 21 19 18 20 23 22 22 22 21 18 18 21 25 26 23 19 15 12 12 11 10 9 8 5 4 3 4 6 7 8 10 13 15 17 19 21 21 18 16 14 15 16 17 16 16 16 16 16 17 17 18 19 20 22 23 24 24 23 24 24 24 23 21 20 20 21 22 22 21 21 20 20 20 22
25 26 27 28 28 27 27 29 27 22 20 21 21 20 21 22 21 19 19 20 22 22 21 20 19 18 16 13 13 13 12 12 10 7 4 3 2 3 5 6 8 10 13 15 17 18 17 15 13 12 13 15 15 15 15 15 15 16 16 17 17 19 19 20 21 22 23 23 24 25 27 28 26 25 23 23 24 24 24 22 22 23 23 24 26
23 24 25 27 27 25 25 25 22 20 21 24 23 19 15 15 17 20 23 23 21 21 20 18 18 18 17 16 15 14 13 11 7 3 1 1 3 5 6 8 10 11 13 16 17 15 12 11 12 13 15 15 15 15 15 15 15 17 17 17 18 19 19 20 21 21 22 24 26 27 29 31 31 30 29 29 29 28 27 26 25 25 26 28 30
19 22 23 24 24 23 22 22 21 21 20 19 18 19 21 21 21 23 23 22 21 21 21 20 19 19 17 16 15 13 10 7 5 4 4 6 8 8 9 10 11 12 14 18 16 12 10 13 15 15 15 15 15 15 15 16 17 18 19 19 19 20 21 22 23 23 24 26 28 29 30 31 30 30 30 31 31 31 30 29 28 28 30 32 34
13 15 15 15 15 16 18 18 17 17 18 22 27 29 30 29 26 23 21 21 21 21 20 19 19 17 15 14 12 10 8 6 5 6 7 9 10 11 11 11 12 14 17 19 16 12 12 15 16 15 15 15 15 15 15 17 19 20 20 20 21 22 23 24 24 25 26 28 29 31 32 32 31 32 32 32 32 32 32 32 33 33 34 35 36
3 5 7 10 13 15 17 20 23 25 26 28 29 29 29 28 26 25 23 22 22 21 20 18 17 15 13 11 9 8 7 6 6 7 9 12 13 13 12 13 15 17 18 17 14 14 15 16 15 16 15 14 14 15 16 18 20 21 21 21 22 23 24 24 25 25 26 27 28 29 30 31 31 32 31 31 32 32 32 33 33 33 33 34 36
11 14 16 19 22 23 24 25 26 26 25 24 24 25 27 27 27 27 26 24 21 19 18 15 13 11 10 8 7 6 5 6 7 9 12 14 15 13 15 17 18 17 18 18 16 16 16 16 16 16 15 14 15 16 17 18 20 21 22 23 24 24 25 26 27 27 26 27 27 27 28 29 29 30 30 29 30 31 31 31 32 31 31 31 33
18 19 21 23 24 24 25 25 24 23 23 23 24 26 27 27 25 23 22 20 18 16 14 12 10 8 7 5 5 4 4 5 7 9 13 16 15 14 15 16 15 15 15 16 16 16 16 15 15 15 15 15 16 16 17 18 20 22 22 23 24 26 27 28 28 27 27 27 27 27 28 28 28 29 29 30 30 30 30 30 30 30 29 29 30
19 20 22 22 21 21 22 22 21 21 22 23 25 25 23 22 20 19 18 17 15 13 11 9 8 6 5 4 4 4 5 7 9 11 13 15 15 14 13 13 13 12 12 13 14 14 14 14 14 15 16 16 16 17 18 19 22 23 23 23 25 27 29 28 28 27 27 27 27 27 26 26 26 26 27 28 29 29 30 30 30 30 30 29 29
16 15 15 16 17 18 19 20 19 19 20 21 21 19 17 16 15 15 13 12 10 9 7 6 5 5 5 5 5 5 6 8 11 12 13 13 14 14 13 13 13 12 12 13 14 13 13 14 15 15 16 17 17 18 19 21 23 24 24 25 27 28 29 29 29 28 28 27 27 26 26 26 25 25 25 27 28 29 29 29 29 29 29 29 29
13 13 13 15 18 18 18 18 18 18 18 17 15 14 13 12 11 10 9 8 7 7 6 3 3 3 3 5 8 7 7 9 11 11 10 10 11 12 11 12 12 12 12 13 13 13 13 14 15 15 16 17 18 19 22 24 25 25 26 28 29 29 30 30 29 28 28 27 26 26 26 25 25 24 24 24 25 26 26 26 26 26 26 26 27
10 12 15 17 17 16 16 17 17 16 15 14 13 12 11 10 10 9 9 7 6 5 5 2 1 1 1 3 6 6 5 7 9 9 7 7 9 10 10 11 11 12 12 13 13 13 14 15 15 16 17 17 17 20 24 27 26 26 27 29 29 30 30 30 30 29 28 27 26 25 25 24 23 22 21 21 21 22 22 22 21 21 22 22 23
10 13 16 15 15 15 17 17 15 14 14 13 12 11 9 8 8 8 7 6 5 4 3 2 1 3 4 5 6 5 3 3 5 6 6 7 9 11 11 10 10 11 12 13 13 13 14 15 15 16 17 17 18 22 26 28 27 27 28 28 29 30 31 31 30 29 28 26 25 24 23 22 21 20 18 18 18 18 18 16 15 15 16 18 19
13 16 17 16 15 15 16 15 13 12 12 10 9 8 7 7 7 6 5 5 4 2 2 0 3 6 6 5 6 6 4 3 5 6 7 8 10 12 12 10 10 11 12 12 13 13 14 15 16 16 17 19 23 26 28 28 28 28 28 29 30 31 32 32 31 29 27 26 24 23 22 21 19 18 16 14 14 15 13 12 10 10 11 12 14
14 17 17 17 15 13 13 12 11 10 9 8 7 7 6 6 6 6 5 4 3 2 2 1 4 6 6 5 6 6 4 4 6 7 8 9 12 12 11 10 9 11 13 14 13 13 14 15 16 17 18 22 25 27 28 29 28 28 28 29 30 32 32 32 31 29 27 26 24 22 20 18 17 15 12 10 11 13 13 12 10 9 9 9 9
13 14 15 14 11 9 9 9 9 9 7 5 4 4 5 6 5 4 4 2 1 1 1 0 4 6 6 6 6 5 3 4 6 7 7 9 11 12 12 11 12 13 15 15 13 13 14 15 16 17 20 23 26 27 29 29 29 27 27 29 31 32 32 32 32 30 28 27 24 20 18 16 15 13 11 9 9 12 13 14 13 11 10 9 8
12 14 15 12 10 9 9 9 9 9 5 3 2 3 4 5 4 2 1 1 1 2 2 4 6 7 6 5 5 4 3 4 5 6 6 7 9 12 14 15 15 16 16 14 13 14 15 15 16 19 23 26 27 28 29 30 29 28 28 29 30 32 32 32 31 30 28 25 22 19 17 16 14 12 9 8 9 10 11 12 11 10 9 9 9
11 13 14 11 9 8 7 6 8 8 4 3 3 4 4 3 1 1 2 2 2 3 4 6 6 5 3 4 4 3 3 4 5 6 6 6 9 13 15 16 16 17 17 15 15 15 14 14 17 21 24 27 28 29 30 31 30 29 29 29 30 32 32 32 31 28 25 23 20 18 17 16 14 13 10 8 8 8 8 8 8 7 7 8 9
13 15 15 12 10 9 7 6 7 7 5 4 4 4 2 0 1 2 2 2 2 3 4 5 5 4 4 3 2 2 3 4 5 5 6 7 10 13 15 15 15 17 17 16 16 16 15 16 18 21 24 27 29 30 31 31 30 29 29 29 30 31 31 30 28 25 22 21 19 18 16 15 14 13 10 8 7 7 5 5 5 4 5 5 8
13 17 17 15 13 12 11 9 8 7 5 4 2 1 0 1 2 2 2 2 3 3 4 5 5 4 4 4 4 4 4 5 5 5 6 8 10 12 14 14 15 16 17 16 16 16 17 18 19 21 24 27 29 31 32 31 30 29 29 29 30 30 30 29 26 22 20 20 19 17 15 14 13 12 10 8 7 5 3 1 1 3 3 5 8
11 14 15 14 14 13 11 9 6 4 3 2 1 0 1 1 1 2 3 4 5 5 5 5 4 3 3 5 7 7 7 7 7 7 7 8 10 12 13 13 14 16 16 16 16 16 17 19 20 21 24 27 30 31 32 31 30 30 30 30 30 30 30 28 25 22 21 20 18 16 14 13 12 12 10 8 6 4 3 2 1 3 4 6 9
10 11 11 11 11 11 9 7 5 3 2 1 1 1 0 0 1 2 3 3 4 4 5 5 4 3 4 5 6 7 8 8 8 8 7 7 9 11 12 13 14 15 16 16 16 16 18 20 21 22 25 27 30 31 32 32 31 31 31 30 29 29 29 29 27 23 21 20 18 17 15 13 12 11 10 8 7 5 4 4 3 4 6 9 12
9 10 10 10 9 8 7 5 4 3 2 1 1 1 1 1 1 2 3 3 3 3 4 3 3 3 4 4 5 7 7 8 8 7 6 7 9 10 11 12 13 14 15 16 16 16 18 21 21 22 25 27 30 32 32 31 31 31 30 30 29 28 29 29 28 25 22 20 18 17 15 13 12 11 10 8 7 6 6 6 6 7 10 12 15
7 8 8 8 7 6 5 4 4 3 2 2 2 2 2 3 3 2 3 3 3 4 5 4 4 4 4 4 5 6 7 7 8 7 5 6 8 10 11 12 12 13 15 15 15 15 18 20 20 21 23 25 28 31 31 30 30 31 30 29 29 28 27 28 29 27 24 21 18 16 15 13 12 12 11 9 8 8 8 8 9 11 13 14 16
Wind_Direction
211 213 215 220 227 230 231 231 231 231 231 232 233 232 233 232 230 229 226 226 223 228 242 246 244 250 253 251 256 265 272 274 274 277 268 264 266 246 262 290 283 248 273 297 309 315 323 330 322 322 338 350 351 346 335 326 330 335 331 321 303 288 283 280 281 285 288 286 286 290 292 293 293 290 286 283 280 279 281 284 287 287 287 284 281
216 224 227 228 235 240 242 242 240 240 239 238 238 238 238 237 235 234 230 230 230 228 234 236 234 239 243 241 243 252 262 264 266 269 262 258 263 260 267 284 271 235 256 281 293 296 306 314 292 298 318 331 340 343 330 316 315 310 304 299 291 287 283 280 281 284 286 287 287 288 291 292 291 290 290 289 288 288 289 290 289 285 283 282 278
206 219 226 227 233 240 244 245 243 245 248 246 244 244 243 242 240 237 233 232 231 229 232 232 230 232 235 232 232 238 244 248 254 263 262 257 264 270 273 278 268 252 262 271 259 267 291 305 297 299 314 325 333 337 331 323 319 302 290 289 286 286 285 283 285 286 287 291 293 292 292 290 286 285 287 287 287 288 292 296 296 291 286 282 279
209 223 229 227 233 237 240 243 243 242 242 241 244 247 246 244 242 241 240 238 235 233 236 236 230 229 231 229 228 229 229 230 240 255 260 257 261 268 273 276 271 264 268 265 241 243 270 286 289 294 306 314 321 328 325 311 306 302 298 297 294 292 290 287 289 289 288 292 295 293 291 289 287 287 288 288 286 284 286 290 291 292 291 284 278
165 202 222 227 235 237 238 240 239 241 242 240 242 245 245 245 245 244 245 245 241 236 237 240 237 231 230 229 228 229 228 225 231 246 254 256 259 262 268 273 270 267 266 260 251 252 263 274 279 284 294 303 311 315 308 299 303 305 303 299 293 289 285 282 281 280 280 284 288 291 293 292 289 287 287 287 285 282 281 280 280 283 284 284 284
81 92 151 213 225 235 242 238 235 244 248 245 244 245 247 248 249 246 244 243 240 235 234 239 240 233 230 231 231 230 231 229 231 239 248 256 261 262 264 265 263 261 259 257 259 261 265 270 275 281 289 296 301 302 304 307 311 311 308 305 301 295 292 290 286 282 279 279 282 286 288 287 286 287 288 287 284 283 284 283 282 280 281 287 293
59 60 62 67 221 242 255 251 243 246 249 250 251 249 247 249 251 248 244 240 237 235 234 236 237 232 229 231 232 230 230 229 230 236 244 252 256 257 258 256 251 248 248 250 257 264 267 271 275 280 286 290 294 300 304 308 310 310 309 307 305 300 296 295 292 286 282 281 282 282 282 281 282 284 285 283 280 281 284 285 286 286 282 280 278
47 36 28 21 346 285 285 283 275 263 258 259 260 256 251 250 249 244 239 238 238 236 235 234 232 232 231 233 234 232 228 225 225 232 239 242 246 248 248 247 244 240 244 250 255 261 268 273 276 279 283 287 292 297 301 304 305 305 303 300 297 294 292 291 289 286 284 283 282 283 283 283 281 280 281 279 278 279 281 281 281 280 277 275 276
35 17 351 320 289 285 291 290 289 288 281 277 275 273 271 264 255 246 240 241 244 241 237 235 232 233 235 235 233 230 227 226 228 232 232 231 237 241 241 243 242 238 245 254 257 261 267 272 275 277 280 285 291 294 298 302 303 304 304 302 298 294 290 287 285 283 283 282 282 283 283 282 281 281 280 276 274 276 277 276 277 279 281 282 283
355 347 328 306 291 289 289 282 280 281 277 277 279 279 281 278 269 263 255 250 249 245 241 240 238 238 238 236 233 229 228 230 234 233 227 224 228 234 238 242 239 232 238 248 253 259 266 269 273 277 279 282 286 290 293 297 301 303 304 302 299 294 289 284 280 279 279 278 279 280 280 279 278 278 278 277 276 275 275 275 277 280 283 282 282
329 322 306 298 296 294 290 282 279 277 273 273 273 271 273 274 269 264 258 252 250 249 247 244 241 242 245 246 241 233 230 235 238 233 228 226 228 232 239 242 239 235 240 246 249 256 263 267 271 277 282 285 287 289 293 296 298 300 300 300 298 295 291 287 283 279 276 275 275 274 274 275 276 277 278 279 278 276 276 276 276 277 278 278 280
317 310 299 295 294 290 286 282 279 277 273 271 271 269 268 267 264 260 256 254 253 249 247 247 245 244 244 245 244 237 236 244 245 235 231 232 233 235 240 244 245 245 248 250 252 255 259 264 270 277 283 289 292 295 298 300 300 301 300 299 298 296 294 291 286 283 279 276 274 272 270 271 272 274 277 280 281 280 277 273 272 273 273 273 275
305 300 297 295 294 289 285 282 278 275 273 271 269 268 266 264 262 259 257 258 258 251 247 249 253 251 243 243 245 242 240 242 239 235 235 236 235 237 241 245 248 249 250 253 256 259 262 267 274 281 287 293 297 300 302 303 304 303 302 301 300 299 298 294 291 288 284 280 276 274 273 271 268 267 266 267 269 273 276 275 274 274 273 272 273
303 300 298 297 294 289 285 281 277 274 272 270 268 266 265 263 259 257 255 255 253 252 251 251 253 252 246 247 251 245 238 235 236 238 240 239 238 239 241 242 245 247 251 257 262 265 268 271 277 282 288 293 297 297 296 297 298 296 295 296 296 296 295 294 293 291 289 286 282 280 279 274 270 268 266 263 261 263 268 272 271 267 265 265 265
296 294 294 295 294 289 286 282 281 280 277 274 271 266 263 261 259 257 256 254 252 251 251 251 251 248 244 248 249 241 235 234 237 240 242 240 239 239 238 240 243 248 253 258 263 267 270 275 280 285 290 294 294 292 292 295 296 294 292 291 289 288 286 285 286 286 287 285 283 282 283 278 271 268 266 263 259 258 259 260 259 259 260 261 263
291 289 288 291 289 284 282 280 279 279 277 274 270 267 265 263 261 259 258 257 256 252 249 249 248 246 245 247 243 237 236 237 238 241 243 241 237 235 236 239 244 249 254 258 263 269 276 282 286 289 293 293 291 291 294 297 297 295 293 292 289 286 283 281 280 280 279 278 275 273 273 271 269 267 266 263 259 257 257 258 258 260 264 267 268
292 291 290 290 288 283 280 279 278 276 274 271 268 266 264 262 261 261 260 258 256 254 252 250 246 244 246 244 238 236 237 237 239 243 243 238 232 229 231 238 244 248 252 259 267 275 282 286 287 288 291 291 291 293 295 296 295 295 294 293 290 287 286 284 282 280 279 278 278 277 276 273 269 266 264 261 258 257 258 259 260 262 266 269 270
292 293 293 291 289 285 282 281 279 276 274 273 270 267 265 263 261 260 259 259 258 256 254 251 248 246 244 238 236 237 237 238 242 242 236 230 225 222 225 230 235 238 246 262 273 277 278 282 286 289 293 295 296 296 297 297 297 298 297 294 290 287 286 284 282 280 279 279 280 282 284 283 281 276 271 264 260 256 254 257 260 262 265 266 268
292 293 293 292 289 287 285 282 279 277 276 274 271 269 267 265 263 260 260 260 259 257 255 253 248 244 239 235 236 239 240 241 239 230 223 221 218 217 218 219 225 234 244 258 266 268 271 278 287 293 297 298 294 294 296 297 298 298 296 293 287 284 284 283 280 279 278 276 274 275 275 276 279 282 281 275 268 260 255 255 257 257 259 262 264
290 291 290 290 287 286 285 282 279 278 277 275 272 270 267 265 263 262 262 262 259 258 255 247 239 236 235 234 238 242 243 240 230 219 216 217 217 219 222 226 236 248 257 262 267 272 277 283 288 290 291 289 286 287 290 293 296 296 293 289 285 283 282 279 276 274 272 269 269 269 267 265 265 268 270 271 271 267 262 260 257 255 255 257 259
287 289 288 286 285 284 282 279 276 275 275 273 270 268 266 264 263 262 262 261 256 252 248 240 234 232 234 239 245 246 240 232 223 216 214 216 217 222 230 240 251 260 267 271 277 282 286 288 284 280 278 279 281 284 286 288 291 290 288 286 284 282 280 277 276 275 272 270 269 269 269 269 268 268 268 268 267 264 263 263 261 256 252 252 254
283 284 284 283 282 281 279 275 273 271 269 268 268 266 265 264 263 261 259 254 244 237 236 235 232 234 241 249 248 237 225 219 218 216 216 217 222 231 246 259 268 273 277 281 287 289 286 283 277 276 278 282 283 285 287 289 289 288 287 287 286 284 282 280 278 276 274 273 272 271 271 271 270 269 268 267 266 263 259 258 259 258 258 256 254
282 282 281 280 279 278 276 274 271 268 268 269 268 267 265 263 262 260 254 246 236 230 232 237 239 241 242 237 224 212 207 208 211 214 217 225 237 250 261 269 274 280 284 288 292 290 285 280 275 277 281 284 284 285 286 286 285 285 285 285 285 285 284 281 278 276 274 274 273 272 270 269 268 268 267 266 266 264 261 258 256 255 258 259 257
280 280 279 279 278 277 276 273 269 267 269 271 269 267 264 260 259 256 247 238 231 229 234 240 240 234 225 211 201 199 200 203 207 214 229 247 261 267 272 277 280 284 288 290 292 291 288 285 284 286 290 290 289 289 288 287 286 286 287 289 290 291 288 283 278 276 275 273 272 271 270 268 267 266 265 264 264 263 261 260 258 255 255 256 256
278 278 278 278 278 277 275 273 270 269 269 268 266 263 259 256 253 249 242 235 231 233 237 233 219 208 200 193 190 191 193 196 204 220 241 256 263 266 269 274 277 281 287 293 297 299 298 299 301 303 303 303 301 300 298 295 294 296 299 300 299 296 291 282 276 274 274 272 271 271 270 269 268 266 265 265 264 262 260 259 258 256 254 254 256
275 276 277 276 276 275 274 273 270 268 265 263 260 257 254 251 245 238 234 232 229 228 224 209 192 185 182 180 181 185 188 193 202 223 250 264 273 280 286 291 293 300 307 311 312 312 310 309 310 309 308 309 310 307 301 301 302 305 306 305 303 301 298 289 281 278 275 274 273 272 272 271 271 269 268 266 262 260 258 257 257 256 252 253 256
274 274 274 274 274 273 272 270 267 264 261 259 256 252 251 248 240 235 235 231 221 210 199 188 179 175 174 175 178 177 168 155 152 173 230 270 287 304 312 314 314 317 317 312 309 308 306 305 305 306 308 315 316 311 308 310 310 309 307 303 300 298 295 290 284 280 278 278 277 276 275 274 273 271 269 266 263 261 259 257 257 256 252 251 254
273 272 272 272 271 270 268 265 263 261 256 250 242 241 245 243 237 234 230 215 191 173 168 171 174 173 171 169 161 147 141 148 166 190 221 238 232 256 282 292 300 306 305 304 305 307 306 307 309 310 311 312 310 307 307 306 304 302 301 298 295 292 289 286 282 279 278 278 277 276 275 273 271 269 267 265 263 261 259 257 255 253 250 248 250
273 272 272 270 268 265 262 260 257 250 238 233 234 238 243 241 229 212 192 175 163 154 152 157 162 160 155 150 141 139 153 174 188 203 230 249 259 275 286 297 308 311 310 314 318 319 318 318 319 316 311 307 304 304 303 302 302 302 300 297 296 295 292 289 285 282 280 278 277 276 276 273 270 268 267 264 262 259 258 258 255 252 250 247 248
274 272 269 265 261 256 251 248 242 231 229 234 235 228 217 209 196 177 161 154 151 150 147 146 146 147 148 151 154 159 169 175 174 168 141 7 346 335 328 326 323 318 319 326 331 331 331 328 322 315 311 308 306 304 304 303 304 303 302 299 297 294 291 289 286 282 279 277 276 276 276 275 274 271 269 266 265 263 262 261 257 253 250 249 252
271 267 262 259 256 246 238 234 230 226 226 219 198 171 155 152 155 156 155 154 154 154 152 149 148 151 154 154 156 158 154 142 120 77 38 16 1 351 342 334 327 325 332 341 347 347 336 326 320 315 312 309 306 305 305 304 303 303 303 302 298 295 292 290 287 284 280 278 277 276 276 276 274 271 269 267 266 266 264 262 259 256 254 254 256
262 256 251 248 241 229 219 212 201 185 166 153 149 146 143 142 143 146 152 155 154 152 149 144 141 143 145 142 138 132 118 97 71 45 25 10 359 351 344 339 341 345 349 354 355 347 332 325 320 315 311 308 306 305 303 300 300 300 300 298 296 296 296 295 293 289 283 279 278 276 276 275 273 271 271 270 268 266 264 263 263 261 260 260 260
190 165 160 159 156 151 146 143 140 135 133 136 140 141 142 143 142 142 144 145 144 142 139 135 133 132 130 124 113 101 88 69 46 28 15 5 360 357 357 0 1 357 354 355 351 337 328 324 319 314 312 307 304 303 302 300 299 297 294 293 294 296 299 302 301 296 290 287 285 282 280 278 277 276 275 273 271 269 267 266 266 264 262 262 261
117 118 119 121 121 121 120 123 126 126 128 132 135 137 141 143 140 137 137 136 134 132 128 124 120 116 109 102 93 81 63 45 32 21 12 8 8 14 20 16 5 353 348 348 344 333 326 323 318 315 312 307 304 304 304 302 299 297 294 295 297 300 304 308 307 303 301 298 294 290 287 285 282 280 278 276 274 273 271 269 268 265 262 261 261
114 116 115 113 113 116 120 124 126 126 129 134 137 138 139 138 134 132 130 126 123 119 115 112 110 105 100 94 85 65 40 30 24 15 12 13 15 23 29 18 358 344 340 339 333 326 323 322 320 316 313 309 307 306 304 302 301 300 300 300 302 306 311 312 311 308 305 301 298 296 294 290 287 284 281 277 275 273 271 268 266 263 261 261 261
111 114 114 111 111 117 122 124 126 127 131 135 136 132 128 124 121 118 115 112 109 107 105 104 104 99 88 74 58 30 12 15 14 8 9 16 18 18 18 5 345 335 334 330 326 325 325 323 321 317 314 311 310 308 308 307 306 306 306 306 308 312 316 317 315 312 309 306 305 304 302 299 295 291 287 283 281 278 275 271 267 264 260 259 260
110 116 116 116 119 123 126 127 128 127 127 128 125 119 114 113 112 111 110 110 110 112 111 99 79 61 40 19 6 360 7 19 16 5 2 12 17 10 1 350 339 334 334 332 330 329 328 325 322 319 317 315 314 314 315 315 314 312 311 312 315 318 320 321 320 318 315 313 311 309 308 306 303 299 294 289 286 284 280 276 273 270 265 259 257
116 123 127 130 131 129 128 128 129 127 125 125 123 119 119 122 122 123 129 132 134 140 142 118 44 35 17 342 337 347 8 14 7 359 358 7 7 358 346 339 337 336 336 334 333 331 328 326 324 322 320 319 319 321 324 325 323 320 318 318 320 323 324 323 322 322 320 317 313 311 310 308 306 303 298 293 290 287 284 280 276 273 268 261 257
130 142 144 139 136 134 133 132 132 132 130 130 130 128 130 134 137 138 139 138 137 142 145 127 81 111 177 290 308 323 345 350 348 350 352 349 343 340 341 342 341 339 338 336 334 332 329 327 325 324 324 321 319 323 328 331 329 324 322 322 323 324 326 327 327 326 326 323 319 316 314 312 311 308 303 298 295 291 288 284 279 271 264 260 257
131 146 146 136 127 129 135 136 133 131 131 130 130 131 133 137 140 140 138 135 134 131 121 123 237 277 290 296 294 291 300 331 341 339 331 324 327 335 343 345 343 341 340 338 335 332 330 328 328 328 327 324 323 328 333 335 332 328 327 326 326 327 331 333 332 332 331 328 325 323 322 320 318 314 306 298 294 291 287 283 279 271 261 255 253
139 145 146 136 125 126 134 137 133 129 130 128 124 124 125 128 133 134 129 126 129 121 92 49 277 287 302 313 308 303 306 322 325 317 312 316 326 335 343 348 348 344 341 338 336 334 331 330 330 330 327 328 332 338 340 339 336 333 332 332 332 334 336 337 337 337 336 333 331 330 327 324 320 315 305 294 291 291 287 282 280 274 261 251 245
149 151 148 141 134 131 135 137 134 129 130 131 126 119 116 118 128 138 136 126 118 103 86 21 306 308 320 319 306 306 319 327 314 308 312 323 334 343 350 351 348 344 341 340 340 337 333 331 332 332 332 335 341 344 345 343 341 339 337 337 338 338 339 340 341 341 339 336 334 332 329 327 322 313 302 290 286 287 284 281 279 271 260 252 238
153 159 154 148 144 140 136 138 142 143 146 152 156 143 130 124 128 148 166 166 163 126 110 323 304 314 321 311 296 302 338 341 320 314 319 330 344 354 356 351 349 349 347 344 343 340 336 333 333 337 342 345 347 347 346 345 345 345 344 342 342 342 342 342 344 343 340 337 336 333 332 331 328 320 307 291 282 278 273 274 277 270 258 253 238
152 163 163 157 151 145 145 160 175 179 184 208 210 178 161 150 142 155 226 258 281 288 300 306 304 307 321 328 322 330 352 343 329 330 333 340 352 357 356 355 356 355 352 350 348 346 344 342 341 345 351 353 353 350 347 346 348 349 348 345 344 344 345 346 345 344 340 338 337 337 337 338 337 333 323 305 292 281 269 269 274 266 251 244 234
149 161 163 159 152 147 152 182 198 200 208 220 194 181 184 186 184 297 309 318 319 313 321 325 317 317 347 3 346 341 347 339 332 335 342 352 0 359 356 357 360 358 357 355 353 352 356 359 354 352 354 355 353 350 348 348 348 349 350 349 347 347 348 348 347 345 342 341 341 341 341 340 339 339 334 320 309 298 280 271 272 261 242 229 216
159 162 158 153 150 144 138 156 189 204 211 203 189 186 191 217 341 332 328 338 339 341 354 1 358 5 20 6 310 297 335 339 330 330 342 355 2 1 358 359 2 2 2 1 358 359 8 11 4 356 355 354 352 349 348 350 351 352 353 354 353 352 351 351 349 348 348 350 349 346 344 343 342 341 336 326 318 315 300 280 269 253 232 212 194
165 168 165 162 162 163 163 171 192 210 214 198 185 192 315 340 329 327 343 356 355 7 31 35 29 25 13 345 322 320 334 335 331 336 348 357 1 0 359 1 5 7 7 7 5 7 13 16 9 357 353 354 353 352 352 354 356 358 359 359 358 356 355 355 356 356 357 359 357 352 348 348 349 350 348 340 332 334 339 321 230 201 191 177 172
162 173 176 177 179 182 184 185 188 193 185 161 135 15 354 359 17 36 33 25 27 37 42 36 30 24 2 342 337 337 331 325 326 334 346 354 358 360 0 4 8 11 11 12 12 13 18 20 11 358 353 356 358 357 357 359 1 3 4 3 2 1 2 3 4 3 3 4 3 359 356 356 358 1 4 360 353 359 21 48 121 168 169 158 158
157 164 169 174 178 177 173 167 160 155 148 124 93 106 128 68 66 66 55 50 57 58 47 36 27 9 345 335 336 333 327 324 327 334 344 352 356 359 2 6 12 15 15 16 16 17 22 23 13 359 354 359 2 3 4 5 5 6 7 5 5 7 8 10 11 10 9 9 9 7 7 8 8 10 14 17 21 35 59 79 102 139 155 153 155
138 145 147 150 152 150 147 145 142 141 147 151 144 138 116 29 14 32 44 49 48 39 31 26 9 343 333 333 332 329 327 330 333 336 345 354 356 359 2 8 15 18 20 19 18 18 24 26 16 1 356 1 6 8 9 9 9 10 10 8 9 12 14 15 16 15 15 15 16 15 17 22 24 25 27 31 43 64 85 101 114 132 146 149 152
123 136 137 132 123 120 128 140 142 142 148 149 136 105 71 54 40 25 21 20 11 359 350 338 327 327 333 331 324 322 325 330 334 339 349 356 356 359 5 11 16 20 23 23 19 20 28 29 16 0 357 3 7 10 12 13 13 15 15 13 13 16 18 19 19 20 19 21 23 24 27 33 40 41 41 43 57 76 92 107 118 128 138 144 148
Height
1498 1500 1502 1504 1506 1508 1510 1512 1513 1514 1515 1516 1518 1519 1520 1520 1521 1522 1522 1522 1522 1522 1521 1521 1521 1521 1522 1523 1523 1523 1523 1523 1524 1524 1525 1525 1526 1527 1526 1527 1528 1528 1527 1527 1527 1527 1527 1528 1528 1527 1527 1527 1527 1528 1527 1527 1527 1526 1526 1526 1526 1527 1526 1526 1526 1524 1524 1523 1522 1521 1520 1519 1518 1518 1518 1517 1516 1515 1514 1513 1513 1512 1511 1511 1511
1497 1498 1500 1502 1503 1505 1507 1509 1511 1512 1512 1514 1516 1517 1518 1519 1519 1520 1520 1521 1521 1521 1521 1520 1520 1520 1520 1521 1521 1521 1521 1521 1522 1522 1523 1524 1524 1525 1525 1525 1526 1527 1526 1526 1526 1526 1526 1527 1527 1526 1526 1526 1526 1526 1527 1527 1526 1526 1526 1526 1526 1526 1525 1525 1524 1523 1522 1521 1520 1519 1518 1518 1516 1516 1515 1514 1513 1512 1512 1511 1510 1510 1509 1509 1508
1496 1496 1497 1499 1501 1502 1503 1505 1508 1510 1510 1511 1513 1514 1516 1517 1518 1518 1518 1519 1519 1519 1519 1520 1519 1519 1519 1519 1519 1519 1520 1520 1520 1520 1521 1522 1522 1522 1523 1523 1524 1525 1524 1525 1525 1525 1524 1525 1525 1525 1525 1525 1524 1525 1525 1525 1525 1525 1525 1525 1524 1524 1523 1522 1522 1520 1519 1518 1518 1517 1517 1516 1515 1514 1513 1512 1511 1510 1509 1508 1508 1507 1507 1506 1506
1496 1496 1496 1497 1499 1500 1500 1502 1504 1506 1506 1507 1508 1510 1512 1513 1514 1515 1515 1516 1516 1516 1516 1517 1518 1518 1518 1518 1518 1518 1518 1518 1518 1518 1519 1520 1520 1520 1520 1521 1521 1522 1522 1523 1524 1524 1523 1523 1524 1523 1523 1523 1523 1523 1523 1524 1524 1524 1523 1523 1523 1522 1521 1520 1519 1519 1517 1516 1515 1515 1514 1513 1512 1512 1511 1510 1509 1508 1507 1506 1505 1505 1504 1504 1504
1496 1496 1496 1497 1499 1499 1500 1501 1502 1502 1503 1503 1504 1506 1508 1509 1510 1511 1512 1512 1512 1512 1513 1514 1515 1516 1516 1517 1517 1517 1518 1518 1517 1516 1517 1517 1518 1518 1518 1518 1518 1519 1519 1520 1521 1521 1522 1522 1522 1522 1522 1522 1522 1522 1522 1522 1522 1522 1521 1521 1521 1521 1520 1519 1518 1517 1516 1514 1513 1512 1512 1511 1510 1509 1508 1508 1507 1506 1505 1505 1504 1503 1502 1501 1500
1495 1495 1496 1497 1498 1498 1499 1499 1499 1500 1501 1501 1501 1502 1504 1506 1505 1506 1507 1508 1509 1509 1509 1510 1511 1513 1514 1514 1515 1516 1516 1517 1517 1515 1514 1514 1514 1515 1515 1515 1516 1516 1517 1517 1518 1518 1519 1520 1520 1520 1521 1521 1521 1521 1520 1520 1520 1519 1519 1519 1518 1518 1517 1516 1516 1515 1514 1513 1511 1510 1509 1509 1508 1506 1506 1505 1504 1503 1502 1502 1501 1500 1499 1497 1497
1495 1496 1496 1497 1497 1497 1498 1499 1498 1498 1498 1499 1499 1499 1500 1501 1501 1501 1502 1504 1505 1505 1506 1506 1508 1509 1510 1511 1512 1513 1514 1515 1515 1513 1512 1512 1512 1513 1513 1513 1514 1514 1514 1515 1515 1516 1516 1517 1518 1518 1519 1519 1519 1518 1518 1518 1517 1517 1517 1516 1516 1515 1514 1513 1513 1512 1511 1510 1509 1508 1507 1507 1506 1504 1504 1503 1502 1501 1500 1499 1498 1497 1497 1496 1495
1495 1496 1496 1497 1497 1497 1498 1498 1497 1496 1496 1497 1498 1497 1496 1498 1498 1499 1499 1500 1501 1501 1502 1503 1504 1505 1506 1507 1508 1509 1510 1510 1511 1511 1511 1511 1510 1511 1511 1511 1512 1512 1512 1513 1513 1513 1514 1514 1515 1515 1516 1516 1516 1516 1516 1515 1515 1515 1515 1514 1513 1513 1512 1511 1511 1510 1509 1508 1507 1506 1505 1504 1504 1503 1502 1501 1500 1499 1498 1497 1496 1495 1494 1493 1492
1495 1496 1496 1497 1497 1497 1497 1497 1496 1496 1496 1496 1496 1496 1495 1496 1496 1496 1497 1498 1498 1498 1499 1500 1501 1502 1503 1503 1505 1506 1506 1506 1507 1509 1510 1509 1508 1508 1509 1509 1509 1510 1510 1510 1511 1511 1511 1512 1512 1512 1513 1513 1514 1514 1514 1513 1513 1512 1512 1511 1511 1510 1509 1509 1508 1508 1507 1506 1505 1504 1503 1502 1502 1501 1500 1499 1499 1498 1497 1496 1494 1492 1491 1490 1488
1494 1495 1496 1496 1496 1496 1496 1496 1496 1496 1496 1496 1496 1495 1495 1495 1494 1494 1495 1495 1496 1496 1497 1498 1498 1499 1499 1500 1502 1502 1502 1503 1504 1506 1507 1506 1505 1505 1506 1506 1507 1507 1508 1508 1509 1509 1509 1510 1510 1510 1510 1511 1512 1511 1511 1511 1510 1509 1509 1508 1508 1507 1506 1506 1506 1505 1505 1504 1503 1502 1501 1500 1499 1499 1498 1497 1496 1495 1494 1493 1491 1490 1489 1487 1485
1493 1494 1495 1495 1495 1495 1495 1495 1495 1495 1495 1495 1495 1495 1495 1494 1494 1493 1493 1494 1494 1494 1495 1495 1496 1496 1496 1497 1498 1497 1498 1500 1501 1501 1503 1503 1503 1503 1503 1504 1504 1505 1505 1506 1507 1507 1507 1508 1508 1507 1507 1508 1509 1508 1508 1507 1507 1506 1506 1505 1504 1504 1503 1502 1502 1501 1501 1500 1499 1499 1498 1497 1496 1496 1495 1494 1494 1493 1491 1490 1489 1488 1486 1485 1483
1493 1493 1493 1494 1494 1494 1494 1494 1494 1494 1494 1494 1493 1493 1494 1494 1493 1493 1492 1492 1493 1493 1493 1493 1493 1494 1494 1494 1494 1494 1495 1495 1496 1497 1498 1500 1501 1501 1501 1501 1502 1503 1503 1503 1505 1505 1505 1506 1505 1505 1505 1505 1505 1505 1504 1503 1503 1502 1501 1501 1500 1500 1500 1499 1498 1497 1497 1495 1494 1494 1494 1493 1493 1493 1493 1492 1491 1490 1489 1488 1486 1485 1484 1482 1481
1492 1492 1492 1492 1492 1492 1492 1492 1492 1492 1492 1492 1492 1492 1492 1492 1492 1492 1491 1491 1491 1491 1491 1490 1490 1491 1492 1491 1491 1492 1493 1492 1492 1494 1495 1497 1498 1499 1499 1499 1499 1500 1501 1501 1502 1503 1503 1503 1503 1503 1503 1502 1501 1501 1500 1500 1499 1498 1496 1496 1495 1495 1494 1494 1493 1492 1492 1491 1489 1488 1489 1489 1488 1488 1489 1488 1487 1485 1485 1484 1483 1482 1481 1479 1478
1491 1491 1491 1491 1490 1490 1491 1491 1491 1491 1490 1490 1490 1490 1490 1490 1490 1490 1490 1490 1489 1489 1489 1488 1488 1489 1489 1489 1489 1490 1489 1489 1490 1491 1492 1494 1496 1497 1497 1497 1497 1498 1499 1499 1500 1500 1501 1501 1500 1500 1500 1499 1499 1498 1497 1497 1497 1495 1494 1492 1491 1490 1489 1488 1488 1487 1486 1485 1484 1482 1483 1484 1483 1482 1483 1483 1482 1481 1480 1479 1479 1477 1476 1475 1474
1490 1489 1489 1489 1489 1488 1488 1488 1488 1488 1488 1488 1488 1488 1488 1488 1488 1488 1488 1488 1487 1487 1487 1486 1486 1486 1487 1487 1487 1486 1485 1486 1487 1489 1490 1492 1494 1495 1495 1494 1495 1496 1497 1497 1497 1497 1498 1498 1497 1497 1497 1497 1496 1494 1494 1494 1493 1492 1491 1490 1488 1488 1486 1485 1484 1483 1482 1481 1479 1478 1478 1478 1478 1477 1477 1477 1476 1476 1475 1473 1472 1472 1471 1469 1469
1488 1488 1487 1487 1487 1487 1486 1486 1486 1485 1485 1486 1486 1486 1486 1486 1486 1486 1485 1485 1485 1485 1484 1484 1483 1484 1484 1484 1484 1483 1482 1484 1485 1486 1488 1490 1491 1493 1492 1492 1493 1495 1495 1495 1495 1495 1495 1495 1494 1494 1494 1493 1492 1490 1490 1491 1489 1488 1486 1485 1484 1483 1482 1482 1481 1479 1478 1477 1476 1475 1474 1474 1473 1472 1472 1472 1471 1471 1470 1468 1468 1468 1467 1466 1464
1486 1486 1485 1485 1485 1485 1484 1484 1484 1483 1483 1483 1483 1483 1483 1483 1483 1483 1483 1483 1482 1482 1482 1482 1481 1481 1482 1482 1481 1479 1480 1482 1483 1484 1486 1487 1489 1490 1490 1490 1492 1493 1493 1493 1492 1492 1492 1492 1491 1491 1491 1490 1488 1487 1487 1487 1485 1484 1482 1480 1480 1478 1478 1478 1477 1475 1474 1472 1471 1470 1470 1469 1469 1468 1468 1468 1467 1468 1467 1463 1464 1466 1465 1462 1461
1483 1483 1483 1482 1482 1482 1482 1481 1481 1481 1480 1480 1480 1480 1480 1480 1480 1480 1480 1480 1480 1480 1480 1480 1480 1479 1479 1478 1477 1476 1478 1480 1481 1482 1484 1485 1487 1488 1488 1489 1490 1491 1491 1491 1491 1491 1490 1489 1488 1488 1487 1486 1484 1483 1483 1483 1481 1480 1478 1477 1475 1474 1474 1473 1472 1471 1470 1468 1467 1465 1464 1464 1463 1462 1462 1462 1462 1464 1462 1459 1460 1462 1461 1458 1458
1480 1480 1480 1479 1479 1479 1478 1478 1477 1477 1477 1477 1477 1477 1477 1477 1477 1477 1477 1477 1477 1477 1477 1477 1477 1476 1475 1474 1474 1475 1477 1478 1479 1481 1482 1483 1484 1485 1486 1487 1488 1488 1489 1489 1489 1489 1489 1487 1486 1485 1484 1483 1482 1479 1478 1478 1477 1476 1475 1473 1471 1470 1470 1469 1468 1467 1465 1464 1462 1461 1460 1460 1459 1458 1457 1456 1456 1457 1456 1455 1456 1457 1455 1454 1454
1477 1477 1477 1476 1476 1475 1475 1475 1474 1474 1474 1473 1473 1473 1473 1473 1474 1474 1474 1474 1474 1475 1475 1474 1473 1471 1471 1472 1473 1474 1476 1477 1478 1479 1480 1481 1482 1483 1484 1485 1485 1486 1486 1486 1487 1486 1486 1486 1484 1482 1481 1480 1479 1477 1475 1474 1473 1472 1471 1469 1467 1467 1466 1464 1463 1462 1460 1458 1456 1456 1455 1455 1454 1453 1452 1452 1452 1451 1451 1450 1450 1451 1450 1450 1450
1474 1474 1473 1473 1473 1472 1472 1472 1471 1471 1470 1470 1470 1470 1470 1471 1471 1471 1471 1471 1472 1472 1470 1469 1469 1468 1469 1470 1471 1472 1474 1475 1476 1477 1478 1479 1481 1482 1483 1483 1484 1484 1484 1484 1484 1484 1484 1484 1482 1479 1478 1477 1475 1473 1472 1471 1469 1468 1466 1465 1463 1462 1461 1459 1457 1456 1454 1452 1451 1450 1449 1449 1448 1448 1448 1447 1447 1447 1447 1446 1445 1445 1445 1445 1445
1471 1471 1470 1470 1469 1469 1468 1468 1468 1467 1467 1467 1467 1467 1467 1468 1468 1468 1468 1468 1469 1468 1467 1466 1467 1467 1467 1468 1469 1471 1472 1474 1475 1476 1477 1479 1480 1481 1482 1482 1482 1482 1481 1481 1481 1481 1481 1482 1479 1475 1474 1473 1471 1470 1468 1467 1465 1463 1461 1460 1458 1457 1456 1453 1451 1450 1448 1447 1446 1445 1444 1444 1444 1443 1443 1442 1442 1442 1442 1442 1442 1442 1441 1440 1440
1468 1467 1467 1466 1465 1465 1465 1465 1464 1464 1464 1464 1464 1464 1464 1464 1465 1465 1465 1465 1465 1465 1464 1465 1466 1465 1465 1466 1468 1469 1471 1473 1474 1476 1477 1478 1479 1480 1480 1480 1480 1480 1479 1478 1478 1478 1478 1478 1475 1472 1471 1470 1468 1466 1465 1463 1460 1458 1456 1455 1454 1452 1451 1449 1447 1445 1444 1443 1442 1440 1440 1440 1439 1439 1439 1438 1438 1438 1438 1438 1438 1438 1438 1437 1436
1464 1464 1463 1462 1462 1461 1461 1461 1461 1461 1461 1461 1461 1460 1461 1461 1462 1462 1461 1461 1462 1462 1462 1463 1464 1464 1464 1465 1466 1468 1470 1472 1474 1475 1476 1477 1478 1478 1478 1478 1478 1477 1477 1476 1475 1475 1474 1473 1471 1469 1467 1466 1464 1462 1460 1458 1456 1454 1453 1451 1450 1449 1447 1445 1443 1442 1441 1439 1438 1437 1436 1436 1436 1435 1435 1435 1435 1435 1435 1434 1434 1434 1434 1433 1433
1461 1460 1460 1459 1459 1458 1458 1458 1458 1458 1458 1458 1457 1457 1458 1458 1458 1458 1457 1458 1459 1460 1460 1460 1461 1462 1463 1464 1466 1467 1470 1472 1473 1474 1475 1475 1476 1476 1476 1476 1476 1475 1475 1474 1473 1472 1470 1468 1466 1464 1463 1461 1458 1456 1455 1453 1452 1451 1449 1448 1447 1445 1444 1442 1441 1440 1438 1437 1436 1434 1433 1433 1432 1431 1431 1432 1431 1431 1431 1430 1430 1430 1430 1429 1429
1457 1457 1456 1455 1455 1454 1454 1454 1454 1454 1455 1454 1454 1453 1454 1454 1455 1454 1454 1455 1456 1457 1457 1458 1459 1461 1463 1464 1466 1468 1469 1471 1473 1473 1474 1474 1475 1475 1474 1474 1473 1472 1472 1471 1469 1467 1466 1464 1462 1460 1458 1456 1455 1453 1452 1451 1450 1448 1447 1446 1444 1443 1442 1441 1439 1438 1436 1434 1433 1432 1431 1430 1430 1429 1428 1428 1427 1427 1427 1427 1426 1426 1426 1425 1424
1454 1453 1452 1451 1451 1450 1450 1450 1450 1450 1451 1450 1450 1449 1449 1450 1452 1452 1452 1453 1454 1455 1455 1456 1458 1460 1463 1465 1467 1468 1469 1471 1472 1472 1473 1474 1474 1474 1474 1473 1471 1470 1469 1468 1467 1465 1463 1461 1459 1457 1455 1454 1453 1452 1451 1449 1448 1446 1445 1444 1443 1441 1440 1439 1437 1436 1434 1432 1431 1430 1429 1428 1427 1426 1426 1425 1424 1424 1424 1423 1423 1422 1422 1422 1421
1450 1449 1448 1447 1447 1446 1446 1446 1446 1446 1446 1446 1446 1446 1446 1447 1448 1449 1450 1451 1452 1453 1454 1455 1457 1460 1463 1465 1467 1468 1469 1470 1471 1471 1472 1472 1473 1473 1473 1472 1470 1469 1468 1467 1465 1463 1461 1458 1456 1455 1454 1454 1452 1451 1449 1448 1446 1445 1443 1442 1441 1440 1438 1437 1435 1433 1432 1430 1429 1427 1426 1425 1424 1423 1423 1422 1421 1421 1421 1420 1419 1418 1418 1418 1417
1445 1444 1443 1442 1442 1442 1442 1441 1442 1442 1442 1441 1442 1443 1444 1445 1446 1448 1450 1451 1452 1454 1455 1457 1459 1461 1464 1466 1467 1467 1468 1469 1470 1471 1471 1471 1471 1471 1471 1470 1468 1467 1466 1464 1462 1460 1457 1455 1455 1454 1454 1452 1451 1449 1448 1446 1444 1443 1441 1440 1438 1437 1435 1434 1432 1430 1429 1427 1426 1424 1423 1422 1421 1420 1419 1418 1417 1417 1417 1416 1415 1415 1415 1414 1412
1440 1439 1437 1436 1436 1436 1437 1437 1437 1438 1438 1438 1440 1441 1443 1444 1445 1447 1450 1452 1454 1455 1457 1459 1460 1461 1463 1465 1466 1467 1468 1469 1470 1470 1470 1470 1470 1469 1468 1467 1466 1465 1463 1461 1459 1456 1455 1454 1454 1454 1452 1451 1449 1447 1446 1444 1442 1440 1439 1437 1436 1434 1432 1431 1429 1427 1425 1424 1422 1420 1419 1418 1417 1416 1415 1414 1413 1413 1412 1412 1411 1411 1410 1409 1408
1435 1434 1432 1431 1431 1431 1432 1433 1433 1434 1435 1436 1438 1439 1442 1444 1447 1449 1452 1454 1455 1456 1458 1459 1460 1462 1464 1465 1466 1467 1468 1469 1469 1469 1469 1468 1468 1467 1466 1465 1464 1463 1461 1459 1456 1455 1455 1454 1454 1452 1451 1449 1447 1446 1444 1442 1440 1439 1437 1435 1433 1431 1429 1427 1425 1424 1422 1420 1418 1417 1415 1414 1413 1411 1411 1410 1409 1408 1408 1407 1407 1407 1406 1405 1404
1432 1430 1429 1428 1428 1429 1430 1430 1431 1433 1435 1436 1438 1440 1442 1445 1448 1451 1454 1455 1456 1458 1459 1460 1462 1464 1466 1466 1467 1467 1467 1468 1468 1468 1468 1467 1466 1465 1464 1463 1462 1461 1459 1457 1455 1455 1455 1454 1452 1451 1449 1447 1445 1444 1442 1440 1438 1437 1435 1432 1430 1428 1426 1424 1422 1421 1419 1416 1415 1413 1411 1410 1409 1407 1406 1405 1404 1403 1403 1402 1402 1401 1401 1400 1399
1431 1430 1429 1428 1428 1429 1430 1431 1433 1435 1437 1439 1441 1443 1445 1447 1449 1451 1454 1456 1457 1459 1460 1462 1464 1465 1466 1466 1466 1467 1467 1467 1467 1467 1467 1466 1465 1464 1463 1462 1461 1460 1458 1457 1456 1455 1454 1453 1451 1449 1448 1446 1444 1442 1440 1438 1437 1435 1433 1430 1428 1425 1423 1421 1419 1417 1415 1413 1411 1409 1407 1406 1405 1403 1402 1401 1400 1399 1398 1397 1397 1396 1396 1395 1394
1432 1432 1431 1431 1431 1431 1433 1434 1436 1438 1441 1443 1445 1446 1448 1450 1451 1453 1454 1456 1458 1460 1461 1463 1464 1465 1466 1466 1466 1466 1467 1467 1467 1466 1466 1465 1464 1463 1463 1462 1460 1459 1458 1457 1456 1455 1453 1452 1450 1448 1446 1444 1442 1441 1438 1436 1434 1432 1430 1428 1425 1422 1420 1418 1415 1413 1411 1409 1407 1405 1403 1402 1400 1399 1397 1396 1395 1394 1393 1392 1391 1391 1390 1389 1389
1435 1435 1435 1434 1435 1435 1436 1438 1441 1443 1445 1446 1448 1449 1451 1452 1454 1455 1456 1458 1459 1461 1462 1464 1464 1465 1466 1466 1466 1466 1466 1466 1466 1466 1465 1465 1464 1463 1462 1462 1462 1460 1458 1457 1456 1454 1452 1450 1448 1446 1445 1443 1441 1439 1437 1434 1432 1430 1427 1425 1422 1419 1417 1414 1412 1409 1407 1405 1403 1401 1399 1397 1396 1394 1393 1391 1390 1389 1388 1387 1387 1386 1385 1385 1385
1439 1439 1439 1439 1439 1440 1442 1443 1445 1447 1448 1449 1451 1452 1453 1454 1456 1457 1458 1459 1461 1462 1463 1464 1465 1466 1466 1466 1466 1466 1466 1466 1466 1466 1465 1465 1464 1463 1462 1462 1462 1461 1459 1457 1456 1453 1451 1449 1447 1445 1443 1441 1439 1437 1435 1432 1430 1427 1425 1422 1419 1416 1414 1411 1408 1406 1404 1401 1399 1397 1395 1393 1391 1390 1388 1386 1385 1384 1383 1383 1382 1382 1382 1381 1381
1441 1443 1443 1443 1444 1445 1446 1447 1449 1450 1451 1452 1453 1454 1455 1457 1458 1459 1460 1461 1462 1463 1465 1465 1465 1466 1466 1466 1466 1466 1466 1466 1466 1465 1465 1465 1464 1463 1463 1462 1461 1460 1458 1456 1454 1451 1449 1448 1446 1443 1441 1439 1437 1435 1432 1430 1427 1425 1422 1419 1416 1413 1410 1407 1405 1402 1400 1397 1395 1393 1391 1389 1387 1385 1384 1382 1380 1379 1378 1378 1377 1377 1377 1377 1377
1443 1444 1445 1446 1447 1448 1449 1450 1451 1452 1453 1455 1456 1457 1458 1459 1460 1461 1462 1463 1464 1465 1466 1466 1466 1466 1466 1466 1466 1465 1465 1465 1465 1465 1465 1464 1464 1464 1463 1462 1460 1458 1456 1454 1452 1450 1448 1446 1444 1442 1440 1437 1435 1433 1430 1428 1425 1422 1419 1416 1413 1410 1407 1404 1401 1399 1396 1394 1391 1389 1387 1385 1383 1381 1380 1378 1376 1375 1374 1373 1373 1372 1372 1373 1373
1444 1445 1446 1446 1448 1449 1451 1452 1453 1454 1455 1456 1458 1459 1460 1460 1461 1462 1463 1464 1465 1465 1466 1466 1466 1466 1466 1466 1465 1465 1465 1466 1465 1465 1465 1465 1464 1463 1462 1461 1459 1457 1455 1453 1451 1449 1447 1445 1442 1440 1438 1436 1434 1431 1428 1425 1422 1419 1416 1413 1410 1407 1404 1401 1398 1395 1392 1390 1387 1385 1383 1381 1379 1377 1376 1374 1372 1371 1370 1369 1369 1368 1368 1369 1369
1445 1446 1447 1448 1449 1451 1452 1454 1455 1456 1457 1458 1459 1460 1460 1461 1462 1463 1463 1464 1465 1466 1466 1466 1466 1466 1466 1466 1465 1465 1465 1466 1466 1466 1465 1464 1463 1462 1460 1459 1457 1455 1453 1452 1449 1447 1446 1444 1441 1439 1437 1435 1433 1430 1426 1423 1420 1417 1414 1410 1407 1404 1401 1398 1395 1392 1389 1386 1384 1381 1379 1377 1375 1374 1372 1370 1369 1368 1367 1366 1366 1365 1365 1366 1367
1446 1447 1448 1450 1451 1453 1454 1455 1456 1457 1458 1459 1460 1461 1461 1462 1462 1463 1464 1465 1465 1466 1466 1466 1466 1465 1465 1465 1464 1464 1464 1465 1465 1465 1464 1463 1462 1460 1459 1457 1456 1454 1452 1450 1448 1446 1444 1443 1440 1438 1436 1434 1431 1428 1424 1421 1418 1414 1411 1408 1404 1401 1398 1394 1391 1388 1385 1383 1380 1377 1375 1374 1372 1370 1369 1367 1367 1366 1365 1364 1364 1363 1363 1364 1365
1447 1449 1449 1451 1453 1454 1456 1457 1457 1458 1459 1460 1460 1461 1462 1463 1463 1463 1464 1465 1465 1466 1466 1466 1465 1465 1464 1464 1464 1463 1464 1464 1465 1464 1463 1462 1460 1459 1457 1456 1455 1453 1451 1449 1447 1445 1443 1442 1440 1438 1435 1433 1430 1426 1423 1419 1416 1412 1409 1405 1402 1398 1395 1392 1388 1386 1383 1380 1377 1375 1373 1371 1370 1368 1366 1365 1365 1364 1364 1363 1362 1362 1362 1362 1363
1448 1450 1451 1452 1454 1456 1457 1457 1458 1459 1460 1460 1461 1461 1462 1463 1463 1463 1464 1465 1465 1465 1466 1466 1465 1464 1464 1463 1463 1463 1464 1464 1464 1463 1461 1460 1459 1458 1456 1455 1454 1452 1450 1448 1446 1444 1442 1441 1439 1437 1434 1432 1428 1425 1422 1418 1414 1410 1407 1403 1400 1396 1393 1390 1386 1383 1380 1378 1375 1373 1371 1369 1368 1366 1365 1363 1363 1363 1362 1362 1361 1361 1361 1361 1362
1448 1450 1452 1454 1455 1457 1457 1458 1458 1459 1460 1460 1461 1462 1462 1463 1463 1464 1464 1464 1464 1465 1465 1464 1464 1464 1464 1463 1463 1463 1464 1464 1463 1462 1461 1459 1458 1457 1455 1454 1452 1451 1449 1447 1445 1443 1441 1440 1438 1436 1433 1431 1428 1424 1421 1417 1413 1409 1406 1402 1398 1395 1391 1388 1385 1382 1379 1376 1374 1371 1369 1368 1366 1365 1363 1362 1362 1361 1361 1360 1360 1360 1360 1360 1361
1449 1451 1453 1455 1456 1457 1458 1458 1459 1460 1460 1461 1461 1462 1462 1463 1463 1464 1464 1464 1464 1464 1464 1464 1463 1463 1464 1464 1464 1463 1463 1463 1462 1461 1460 1458 1457 1456 1454 1453 1452 1450 1448 1446 1444 1442 1441 1439 1437 1435 1433 1430 1427 1423 1420 1416 1412 1408 1405 1401 1398 1394 1390 1387 1384 1381 1378 1375 1373 1370 1368 1367 1365 1364 1363 1362 1361 1360 1360 1359 1359 1359 1359 1359 1360
1450 1452 1454 1455 1457 1458 1458 1459 1459 1460 1461 1461 1461 1462 1462 1463 1463 1464 1464 1464 1464 1464 1464 1464 1464 1464 1464 1464 1463 1462 1462 1461 1461 1460 1459 1457 1456 1455 1454 1453 1451 1449 1448 1446 1444 1442 1440 1439 1437 1435 1432 1429 1426 1423 1419 1415 1412 1408 1404 1401 1397 1394 1390 1387 1384 1381 1378 1375 1372 1370 1368 1366 1365 1363 1362 1361 1360 1360 1359 1359 1358 1358 1359 1359 1359
1451 1452 1454 1455 1456 1457 1458 1459 1459 1460 1460 1461 1462 1462 1462 1463 1463 1463 1463 1464 1464 1464 1464 1464 1464 1464 1464 1463 1462 1461 1461 1460 1459 1458 1458 1457 1456 1455 1454 1452 1451 1449 1447 1446 1444 1442 1440 1438 1437 1435 1433 1429 1426 1422 1418 1415 1411 1407 1404 1400 1397 1393 1390 1387 1383 1380 1377 1375 1373 1371 1368 1367 1365 1364 1362 1361 1361 1360 1359 1359 1359 1359 1359 1359 1360
1452 1453 1454 1455 1456 1457 1458 1459 1460 1460 1461 1461 1462 1462 1462 1463 1463 1463 1463 1463 1464 1464 1464 1464 1464 1463 1463 1462 1461 1460 1460 1459 1458 1458 1457 1456 1455 1455 1453 1452 1451 1449 1447 1446 1444 1442 1440 1438 1437 1435 1432 1429 1426 1422 1418 1415 1411 1407 1404 1401 1397 1394 1391 1387 1384 1381 1378 1376 1373 1371 1369 1368 1366 1364 1363 1362 1361 1361 1360 1360 1360 1360 1360 1361 1361
1453 1454 1455 1456 1457 1458 1458 1459 1460 1460 1461 1461 1462 1462 1462 1462 1463 1463 1463 1463 1463 1464 1464 1464 1464 1463 1462 1461 1460 1460 1460 1459 1458 1457 1457 1456 1455 1454 1453 1452 1451 1449 1447 1446 1444 1443 1441 1438 1437 1435 1433 1430 1427 1423 1419 1415 1412 1408 1405 1401 1398 1395 1392 1388 1385 1382 1379 1377 1375 1372 1371 1369 1368 1366 1365 1364 1363 1363 1362 1362 1362 1362 1362 1363 1364
1454 1455 1456 1457 1458 1458 1459 1459 1460 1460 1461 1461 1462 1462 1462 1462 1462 1462 1463 1463 1463 1463 1463 1463 1463 1462 1461 1461 1460 1460 1459 1459 1458 1457 1456 1456 1455 1454 1453 1452 1451 1449 1447 1446 1445 1443 1441 1439 1437 1436 1433 1431 1428 1424 1421 1417 1413 1410 1406 1403 1400 1397 1394 1390 1387 1384 1381 1379 1377 1375 1373 1371 1370 1368 1367 1366 1366 1365 1365 1364 1364 1365 1365 1366 1367
1455 1456 1456 1457 1458 1458 1459 1459 1459 1460 1460 1461 1461 1462 1462 1462 1462 1462 1462 1462 1462 1462 1461 1461 1461 1461 1460 1460 1460 1459 1459 1458 1457 1457 1456 1456 1455 1454 1454 1452 1451 1449 1448 1446 1445 1444 1441 1439 1438 1437 1434 1432 1429 1426 1423 1419 1416 1412 1409 1406 1402 1399 1396 1393 1390 1387 1384 1381 1379 1377 1376 1374 1372 1371 1370 1369 1369 1368 1368 1368 1368 1368 1368 1369 1369